This is the latest recevied weather packets stored in our database for station/object DC1MPP-9. If no packets are shown the sender has not sent any weather packets the latest 10 day(s).
| Time | Temp. | Humidity | Pressure | Rain* | Wind** | Luminosity | Snow |
|---|---|---|---|---|---|---|---|
| 1777550724 | 15° C | 25% | 968 hPa | - | - | - | - |
| 1777550483 | 15° C | 25% | 968 hPa | - | - | - | - |
| 1777550242 | 14.44° C | 24% | 968 hPa | - | - | - | - |
| 1777550001 | 14.44° C | 24% | 968 hPa | - | - | - | - |
| 1777549760 | 14.44° C | 24% | 968 hPa | - | - | - | - |
| 1777549519 | 14.44° C | 24% | 968 hPa | - | - | - | - |
| 1777549278 | 14.44° C | 25% | 968 hPa | - | - | - | - |
| 1777549037 | 14.44° C | 26% | 968 hPa | - | - | - | - |
| 1777548795 | 14.44° C | 25% | 968 hPa | - | - | - | - |
| 1777548554 | 14.44° C | 24% | 968 hPa | - | - | - | - |
| 1777548313 | 13.89° C | 24% | 968 hPa | - | - | - | - |
| 1777548072 | 13.89° C | 24% | 968 hPa | - | - | - | - |
| 1777547831 | 14.44° C | 29% | 968 hPa | - | - | - | - |
| 1777547590 | 14.44° C | 25% | 968 hPa | - | - | - | - |
| 1777547349 | 13.89° C | 27% | 968 hPa | - | - | - | - |
| 1777547108 | 14.44° C | 25% | 968 hPa | - | - | - | - |
| 1777546867 | 13.33° C | 27% | 969 hPa | - | - | - | - |
| 1777546626 | 13.89° C | 27% | 969 hPa | - | - | - | - |
| 1777546385 | 13.89° C | 27% | 969 hPa | - | - | - | - |
| 1777546144 | 13.89° C | 27% | 969 hPa | - | - | - | - |
| 1777545903 | 13.33° C | 27% | 969 hPa | - | - | - | - |
| 1777545662 | 13.89° C | 26% | 969 hPa | - | - | - | - |
| 1777545421 | 12.78° C | 26% | 969 hPa | - | - | - | - |
| 1777545180 | 12.78° C | 27% | 969 hPa | - | - | - | - |
| 1777544939 | 12.78° C | 29% | 969 hPa | - | - | - | - |
* Rain since midnight (hover to see other rain measurements)
** Current wind speed in m/s (hover to see current wind gust speed)